Weather in Viamão

Brazil     30°05′18″S   51°01′24″W
temp.,
°C
wind,
m/s
gust,
m/s
humid.,
%
clouds,
%
prec.,
mm/h
press.,
hPa
HPBL,
m
12 may, wed
wed1200:00+13nnw11694 0.0 102013
03:00+12sw127651 0.0 102049
06:00+11wnw11812 0.0 102033
09:00+13wnw22670 0.0 1022409
12:00+17sw22500 0.0 10211215
15:00+18ssw23400 0.0 10201386
18:00+14sse23580 0.0 102184
21:00+13e11650 0.0 102237
13 may, thu
thu1300:00+11nne11670 0.0 102228
03:00+11nw11690 0.0 102215
06:00+10nnw11740 0.0 102234
09:00+13nw11620 0.0 1024232
12:00+19wnw00430 0.0 1024732
15:00+20s01351 0.0 10211036
18:00+15se25600 0.0 1022165
21:00+13e24704 0.0 1024128
14 may, fri
fri1400:00+12e12819 0.0 102374
03:00+11ese128051 0.0 102247
06:00+10ene117999 0.0 102214
09:00+13ene1163100 0.0 1023159
12:00+18e1243100 0.0 1022648
15:00+20ese3336100 0.0 1020959
18:00+15se3763100 0.0 1020264
21:00+13se27760 0.0 1021208
15 may, sat
sat1500:00+11ese24850 0.0 1020133
03:00+11e11890 0.0 102024
06:00+10ne00890 0.0 102012
09:00+14nw11715 0.0 1021212
12:00+20ese01493 0.0 1021647
15:00+22se11440 0.0 10191000
18:00+17sse36730 0.0 1019273
21:00+15ese25903 0.0 1020175
16 may, sun
sun1600:00+14e11934 0.0 101951
03:00+13nnw11945 0.0 101928
06:00+12nw12936 0.0 101962
09:00+15nw237911 0.0 1020259
12:00+20wsw226191 0.0 1020779
15:00+21ssw3259100 0.0 1018954
18:00+17s2578100 0.0 1018240
21:00+16se0188100 0.0 101941